Tracking 23645 objects as of 21-Sep-2021
HD Live streaming from Space Station
objects crossing your sky now

SL-24 R/B

Track SL-24 R/B now!
10-day predictions


NORAD ID: 40047
Int'l Code: 2014-033AP
Perigee: 616.5 km
Apogee: 1,458.8 km
Inclination: 97.9 °
Period: 105.8 minutes
Semi major axis: 7408 km
RCS: Unknown
Launch date: June 19, 2014
Source: Commonwealth of Independent States (former USSR) (CIS)
Launch site: Orenburg, Russia (OREN)

Note: This is a ROCKET BODY
aabbcc
Your satellite tracking list
Your tracking list is empty




NASA's NSSDC Master Catalog

Two Line Element Set (TLE):
1 40047U 14033AP  21264.17502338 -.00000031  00000-0  52706-5 0  9990
2 40047  97.8692  59.0966 0568419 263.5185  90.0976 13.61429790360604
Source of the keplerian elements: AFSPC